When you browse on this site, cookies collect data to enhance your experience and personalize the content and advertising you see.
Visit our Privacy Policy to learn more. By continuing to use the site, you agree to this use of cookies and data.

Hourly Weather Novaya Slobodka

Today, 22 September, Tuesday

Time Temperature Precipitation Wind Pressure Humidity
00:00 +10°C° 0 mm 3 mps 749 mmHg 91%
01:00 +10°C° 0 mm 3 mps 749 mmHg 91%
02:00 +10°C° 0 mm 3 mps 749 mmHg 92%
03:00 +10°C° 0 mm 3 mps 749 mmHg 94%
04:00 +10°C° 0 mm 3 mps 749 mmHg 95%
05:00 +8°C° 0 mm 4 mps 749 mmHg 97%
06:00 +11°C° 0 mm 4 mps 749 mmHg 92%
07:00 +12°C° 0 mm 5 mps 749 mmHg 87%
08:00 +13°C° 0 mm 5 mps 750 mmHg 80%
09:00 +15°C° 0 mm 5 mps 749 mmHg 74%
10:00 +16°C° 0 mm 6 mps 749 mmHg 67%
11:00 +19°C° 0 mm 6 mps 749 mmHg 61%
12:00 +19°C° 0 mm 6 mps 749 mmHg 59%
13:00 +20°C° 0 mm 6 mps 749 mmHg 58%
14:00 +20°C° 0 mm 6 mps 749 mmHg 56%
15:00 +19°C° 0 mm 5 mps 748 mmHg 61%
16:00 +17°C° 0 mm 5 mps 748 mmHg 66%
17:00 +17°C° 0 mm 4 mps 748 mmHg 71%
18:00 +14°C° 0 mm 4 mps 748 mmHg 75%
19:00 +13°C° 0 mm 4 mps 748 mmHg 80%
20:00 +12°C° 0 mm 3 mps 749 mmHg 84%
21:00 +12°C° 0 mm 3 mps 748 mmHg 86%
22:00 +11°C° 0 mm 3 mps 748 mmHg 88%
23:00 +11°C° 0 mm 3 mps 748 mmHg 90%

Tomorrow, 23 September, Wednesday

Time Temperature Precipitation Wind Pressure Humidity
00:00 +11°C° 0 mm 3 mps 748 mmHg 91%
01:00 +10°C° 0 mm 3 mps 749 mmHg 91%
02:00 +10°C° 0 mm 2 mps 749 mmHg 92%
03:00 +10°C° 0 mm 2 mps 749 mmHg 92%
04:00 +10°C° 0 mm 2 mps 749 mmHg 92%
05:00 +9°C° 0 mm 2 mps 749 mmHg 92%
06:00 +12°C° 0 mm 2 mps 749 mmHg 87%
07:00 +13°C° 0 mm 2 mps 749 mmHg 81%
08:00 +15°C° 0 mm 2 mps 749 mmHg 76%
09:00 +16°C° 0 mm 2 mps 749 mmHg 70%
10:00 +18°C° 0 mm 2 mps 749 mmHg 65%
11:00 +20°C° 0 mm 2 mps 749 mmHg 59%
12:00 +21°C° 0 mm 2 mps 749 mmHg 58%
13:00 +21°C° 0 mm 2 mps 749 mmHg 57%
14:00 +23°C° 0 mm 2 mps 749 mmHg 56%
15:00 +20°C° 0 mm 2 mps 749 mmHg 62%
16:00 +19°C° 0 mm 2 mps 748 mmHg 67%
17:00 +19°C° 0 mm 1 mps 748 mmHg 73%
18:00 +17°C° 0 mm 2 mps 748 mmHg 75%
19:00 +16°C° 0 mm 2 mps 749 mmHg 77%
20:00 +15°C° 0 mm 2 mps 749 mmHg 79%
21:00 +14°C° 0 mm 2 mps 749 mmHg 78%
22:00 +14°C° 0 mm 2 mps 749 mmHg 78%
23:00 +13°C° 0 mm 1 mps 749 mmHg 78%

Day after tomorrow, 24 September, Thursday

Time Temperature Precipitation Wind Pressure Humidity
00:00 +13°C° 0 mm 1 mps 749 mmHg 77%
01:00 +13°C° 0 mm 1 mps 749 mmHg 77%
02:00 +13°C° 0 mm 1 mps 749 mmHg 76%
03:00 +12°C° 0 mm 1 mps 749 mmHg 76%
04:00 +12°C° 0 mm 1 mps 749 mmHg 76%
05:00 +12°C° 0 mm 1 mps 749 mmHg 77%
06:00 +13°C° 0 mm 1 mps 749 mmHg 73%
07:00 +14°C° 0 mm 2 mps 749 mmHg 70%
08:00 +15°C° 0 mm 2 mps 750 mmHg 67%
09:00 +17°C° 0 mm 2 mps 750 mmHg 62%
10:00 +19°C° 0 mm 2 mps 750 mmHg 57%
11:00 +20°C° 0 mm 2 mps 750 mmHg 52%
12:00 +21°C° 0 mm 2 mps 750 mmHg 51%
13:00 +21°C° 0 mm 2 mps 750 mmHg 50%
14:00 +23°C° 0 mm 2 mps 750 mmHg 49%
15:00 +20°C° 0 mm 2 mps 749 mmHg 54%
16:00 +19°C° 0 mm 2 mps 749 mmHg 60%
17:00 +18°C° 0 mm 2 mps 749 mmHg 66%
18:00 +17°C° 0 mm 2 mps 749 mmHg 68%
19:00 +15°C° 0 mm 2 mps 749 mmHg 69%
20:00 +14°C° 0 mm 2 mps 750 mmHg 71%
21:00 +14°C° 0 mm 2 mps 750 mmHg 71%
22:00 +14°C° 0 mm 2 mps 750 mmHg 72%
23:00 +13°C° 0 mm 2 mps 750 mmHg 72%

25 September, Friday

Time Temperature Precipitation Wind Pressure Humidity
00:00 +13°C° 0 mm 2 mps 750 mmHg 73%
01:00 +12°C° 0 mm 2 mps 750 mmHg 74%
02:00 +12°C° 0 mm 2 mps 750 mmHg 74%
03:00 +12°C° 0 mm 2 mps 750 mmHg 75%
04:00 +12°C° 0 mm 2 mps 749 mmHg 75%
05:00 +10°C° 0 mm 2 mps 749 mmHg 75%
06:00 +13°C° 0 mm 2 mps 749 mmHg 72%
07:00 +14°C° 0 mm 2 mps 749 mmHg 69%
08:00 +16°C° 0 mm 2 mps 749 mmHg 66%
09:00 +17°C° 0 mm 2 mps 749 mmHg 62%
10:00 +19°C° 0 mm 3 mps 749 mmHg 58%
11:00 +21°C° 0 mm 3 mps 749 mmHg 54%
12:00 +21°C° 0 mm 3 mps 749 mmHg 53%
13:00 +22°C° 0 mm 3 mps 749 mmHg 52%
14:00 +22°C° 0 mm 3 mps 749 mmHg 51%
15:00 +21°C° 0 mm 3 mps 749 mmHg 57%
16:00 +19°C° 0 mm 3 mps 749 mmHg 62%
17:00 +18°C° 0 mm 3 mps 748 mmHg 68%
18:00 +17°C° 0 mm 3 mps 748 mmHg 69%
19:00 +16°C° 0 mm 3 mps 749 mmHg 69%
20:00 +14°C° 0 mm 3 mps 749 mmHg 70%
21:00 +14°C° 0 mm 3 mps 749 mmHg 70%
22:00 +14°C° 0 mm 3 mps 749 mmHg 70%
23:00 +14°C° 0 mm 3 mps 749 mmHg 71%

26 September, Saturday

Time Temperature Precipitation Wind Pressure Humidity
00:00 +13°C° 0 mm 3 mps 749 mmHg 71%
01:00 +13°C° 0 mm 3 mps 749 mmHg 72%
02:00 +13°C° 0 mm 3 mps 748 mmHg 72%
03:00 +12°C° 0 mm 3 mps 749 mmHg 73%
04:00 +12°C° 0 mm 3 mps 749 mmHg 73%
05:00 +12°C° 0 mm 3 mps 749 mmHg 74%
06:00 +13°C° 0 mm 4 mps 749 mmHg 70%
07:00 +14°C° 0 mm 4 mps 749 mmHg 66%
08:00 +15°C° 0 mm 5 mps 749 mmHg 63%
09:00 +17°C° 0 mm 5 mps 749 mmHg 58%
10:00 +19°C° 0 mm 5 mps 749 mmHg 53%
11:00 +21°C° 0 mm 6 mps 749 mmHg 48%
12:00 +21°C° 0 mm 6 mps 749 mmHg 48%
13:00 +21°C° 0 mm 6 mps 749 mmHg 48%
14:00 +22°C° 0 mm 6 mps 749 mmHg 48%
15:00 +20°C° 0 mm 5 mps 749 mmHg 52%
16:00 +19°C° 0 mm 5 mps 749 mmHg 57%
17:00 +18°C° 0 mm 4 mps 748 mmHg 62%
18:00 +16°C° 0 mm 5 mps 749 mmHg 61%
19:00 +16°C° 0 mm 5 mps 749 mmHg 61%
20:00 +15°C° 0 mm 5 mps 749 mmHg 60%
21:00 +15°C° 0 mm 5 mps 749 mmHg 60%
22:00 +15°C° 0 mm 5 mps 749 mmHg 59%
23:00 +15°C° 0 mm 5 mps 749 mmHg 59%

27 September, Sunday

Time Temperature Precipitation Wind Pressure Humidity
00:00 +14°C° 0 mm 5 mps 749 mmHg 58%
01:00 +14°C° 0 mm 5 mps 749 mmHg 57%
02:00 +14°C° 0 mm 4 mps 749 mmHg 57%
03:00 +13°C° 0 mm 4 mps 750 mmHg 56%
04:00 +13°C° 0 mm 4 mps 750 mmHg 55%
05:00 +12°C° 0 mm 4 mps 750 mmHg 54%
06:00 +13°C° 0 mm 5 mps 750 mmHg 53%
07:00 +13°C° 0 mm 5 mps 750 mmHg 52%
08:00 +14°C° 0 mm 5 mps 750 mmHg 51%
09:00 +15°C° 0 mm 6 mps 750 mmHg 49%
10:00 +16°C° 0 mm 6 mps 750 mmHg 46%
11:00 +18°C° 0 mm 7 mps 750 mmHg 44%
12:00 +18°C° 0 mm 7 mps 750 mmHg 44%
13:00 +18°C° 0 mm 7 mps 750 mmHg 44%
14:00 +18°C° 0 mm 7 mps 749 mmHg 43%
15:00 +19°C° 0 mm 6 mps 749 mmHg 45%
16:00 +17°C° 0 mm 6 mps 749 mmHg 47%
17:00 +16°C° 0 mm 5 mps 749 mmHg 50%
18:00 +16°C° 0 mm 6 mps 749 mmHg 47%
19:00 +17°C° 0 mm 6 mps 749 mmHg 45%
20:00 +17°C° 0 mm 7 mps 749 mmHg 42%
21:00 +17°C° 0 mm 7 mps 749 mmHg 42%
22:00 +16°C° 0 mm 6 mps 749 mmHg 41%
23:00 +16°C° 0 mm 6 mps 749 mmHg 40%
Show more